Snowfall_Accumulation
0.2 0.2 0.1 0.1 0.3 0.3 0.2 0.1 0.1 0.1 0.1 0.1 0.1 0.1 0.1 0.1 0.1 0.2 0.2 0.2 0.7 0.7 0.6 0.6 0.9 0.8 0.3 0.3 0.2 0.3 0.3 0.3 0.2 0.2 0.3 0.5 0.7 0.8 1.1 1.3 1.4 1.5
0.1 0.1 0.1 0.1 0.1 0.1 0.1 0.1 0.1 0.2 0.2 0.1 0.1 0.1 0.1 0.1 0.1 0.1 0.2 0.2 0.3 0.3 0.2 0.6 0.4 0.8 0.6 0.7 0.5 0.7 0.7 0.6 0.7 0.4 0.5 0.5 0.7 0.7 0.8 0.8 1.1 1.2
0.1 0.1 0.1 0.1 0.1 0.1 0.1 0.1 0.2 0.1 0.1 0.1 0.1 0.1 0.2 0.1 0.2 0.2 0.2 0.3 0.4 0.7 0.4 0.9 0.7 0.8 1.0 0.8 0.4 0.6 0.7 0.8 0.9 0.8 1.0 0.9 0.7 0.8 0.8 0.8 0.9 1.2
0.1 0.0 0.1 0.1 0.1 0.2 0.1 0.1 0.1 0.2 0.1 0.1 0.1 0.1 0.1 0.2 0.3 0.3 0.4 0.5 0.5 0.6 0.7 0.7 0.7 0.8 0.9 0.6 1.4 1.2 1.3 1.0 1.0 0.9 1.0 1.3 1.2 1.0 0.9 0.9 1.1 1.1
0.1 0.1 0.1 0.1 0.1 0.1 0.1 0.1 0.1 0.1 0.2 0.1 0.2 0.1 0.3 0.3 0.4 0.6 0.7 0.7 0.7 0.8 1.6 1.0 0.9 0.9 0.7 0.6 0.8 1.2 0.8 0.8 0.6 0.7 0.9 1.2 1.2 1.2 1.1 1.3 1.4 1.5
0.1 0.1 0.1 0.1 0.1 0.1 0.2 0.2 0.2 0.3 0.8 0.4 0.4 0.2 0.4 0.5 0.6 0.5 0.7 0.8 0.8 0.8 0.9 2.5 1.4 1.1 1.4 0.7 0.7 0.5 0.7 0.6 0.7 0.6 0.6 0.7 0.7 0.8 1.1 1.3 1.6 1.6
0.1 0.1 0.1 0.1 0.1 0.2 0.2 0.3 0.4 0.7 0.4 0.6 1.0 1.1 0.5 0.5 0.5 0.6 0.8 0.9 1.0 1.0 0.9 1.4 0.9 1.2 0.7 0.8 1.0 0.8 0.9 0.8 0.7 0.7 0.7 0.7 0.8 0.7 0.7 1.2 1.3 1.3
0.1 0.1 0.2 0.2 0.2 0.2 0.2 0.4 1.0 0.8 1.0 0.7 1.2 0.4 0.8 0.6 0.7 0.8 0.8 1.0 1.1 1.1 1.0 1.0 1.5 1.3 0.9 1.0 1.0 0.9 0.9 0.8 1.0 1.4 0.9 1.0 0.7 0.8 0.6 0.7 1.1 1.3
0.1 0.2 0.2 0.2 0.2 0.2 0.6 0.4 0.7 0.9 0.9 0.8 0.7 0.7 0.7 1.1 1.1 1.2 1.3 1.3 1.4 1.2 1.2 1.5 1.5 1.5 1.2 1.6 1.9 1.7 1.4 1.1 0.9 0.9 0.9 0.9 0.8 0.7 0.6 0.6 0.9 1.2
0.2 0.2 0.2 0.3 0.7 0.5 0.4 0.4 0.5 0.6 0.7 0.7 1.0 1.1 1.2 1.1 1.2 1.2 1.3 1.3 1.5 1.5 1.9 1.4 1.5 1.2 1.4 1.8 1.8 1.6 1.9 2.2 1.7 1.3 1.2 1.2 1.3 1.0 0.7 0.7 0.8 1.2
0.2 0.2 0.3 0.3 0.3 0.3 0.3 0.4 1.0 0.6 0.7 1.4 1.1 1.5 2.2 1.5 1.4 1.3 1.5 1.7 1.6 1.3 1.1 1.1 1.1 1.1 1.2 1.2 1.2 1.2 1.4 1.5 1.6 1.7 1.7 1.6 1.5 1.5 1.5 1.4 1.3 1.1
0.2 0.2 0.2 0.3 0.3 0.8 0.5 0.6 0.7 0.8 0.9 1.4 2.2 1.3 1.8 1.6 1.9 1.8 1.8 1.7 1.5 1.5 1.4 1.7 1.3 1.3 1.3 1.7 1.2 1.0 1.1 1.2 1.3 1.3 1.3 1.5 1.7 1.8 1.6 1.6 1.7 1.6
0.2 0.3 0.3 0.4 0.5 0.6 0.7 1.0 1.1 1.1 1.2 1.4 1.6 1.9 2.3 2.4 2.5 2.1 2.0 2.0 1.9 1.9 1.7 1.7 1.6 1.4 1.4 1.3 1.3 1.3 1.4 1.4 1.4 1.4 1.2 1.2 1.3 1.4 1.4 1.4 1.6 1.6
0.3 0.4 0.5 0.6 0.9 1.8 1.1 1.2 1.3 1.5 1.7 1.6 2.0 2.3 2.9 3.0 3.2 2.6 2.3 2.1 2.3 2.3 2.0 1.9 2.0 1.8 1.6 1.5 1.5 1.5 1.5 1.8 1.6 1.9 1.9 1.8 1.6 1.4 1.4 1.5 1.6 1.7
0.4 0.5 0.7 1.2 1.0 1.3 1.4 1.5 1.6 2.0 1.8 2.2 2.8 3.3 3.0 3.0 3.2 3.0 3.0 3.1 2.5 2.4 2.7 2.2 2.4 2.2 1.9 2.0 2.1 2.0 2.3 3.1 2.9 3.2 3.1 3.1 2.8 2.5 2.2 2.0 1.8 1.8
0.6 0.9 1.2 1.6 1.6 1.8 1.7 1.6 1.7 2.0 2.6 2.5 3.2 3.3 3.4 2.8 3.1 3.2 3.5 4.8 3.3 3.1 2.9 3.3 2.9 2.5 2.1 2.1 2.9 4.9 6.3 6.6 6.6 6.3 6.0 5.8 5.6 5.0 4.1 3.3 2.8 2.3
1.0 1.3 1.4 1.7 1.9 1.8 1.9 2.1 2.3 2.5 2.8 3.2 3.2 3.3 3.7 4.2 3.8 4.5 4.3 4.3 4.1 4.1 4.4 4.1 3.7 3.0 2.4 3.4 6.9 9.2 9.9 10.0 9.3 7.8 6.5 6.3 6.0 5.7 5.2 3.9 3.0 2.5
1.4 1.5 1.8 1.9 1.9 2.1 2.4 2.8 2.7 3.1 3.2 3.3 4.2 3.9 4.4 4.4 5.4 5.8 4.6 4.3 4.5 4.6 4.7 4.3 4.2 3.0 3.3 6.6 8.2 11.4 14.5 12.2 11.7 10.4 8.6 7.5 6.7 6.1 5.2 4.4 3.7 3.0
1.6 2.0 2.2 2.4 2.5 3.3 2.8 3.0 3.3 3.6 3.8 4.1 4.4 4.5 5.1 5.9 6.5 5.4 5.2 5.2 5.1 5.8 5.1 4.6 4.5 3.3 4.2 7.1 8.9 13.4 15.9 16.4 13.8 10.9 9.0 7.4 6.3 5.5 4.9 4.3 3.8 4.1
2.0 2.5 2.8 2.8 2.9 2.8 3.0 3.4 3.9 4.4 4.5 5.0 5.1 5.3 6.1 6.5 6.1 6.4 6.1 6.5 6.7 6.8 6.3 5.9 5.4 4.4 4.7 8.9 12.5 15.0 17.3 18.7 14.4 12.5 10.6 8.7 7.0 5.8 5.0 4.5 4.2 4.4
2.5 3.1 3.6 3.2 3.1 3.1 3.5 3.9 4.3 4.5 4.6 5.0 5.6 6.2 7.0 7.6 7.4 7.3 7.3 7.5 7.5 8.3 8.0 7.8 6.4 5.3 7.7 12.2 13.7 15.8 16.7 20.1 16.2 14.6 12.1 9.4 7.3 6.1 5.6 5.1 4.4 4.2
3.0 3.4 3.4 3.5 3.4 3.6 4.4 4.7 4.6 4.9 5.8 5.3 6.0 6.3 6.6 6.9 6.2 6.1 6.2 6.2 5.8 6.3 7.2 7.2 5.4 5.1 9.0 12.6 13.3 16.1 18.3 17.5 17.3 13.8 11.2 9.4 7.7 6.4 5.5 4.7 4.2 4.3
3.2 3.6 3.8 3.7 3.9 4.5 4.7 4.9 5.0 4.8 4.7 4.9 5.9 5.4 5.0 4.7 4.8 4.3 4.5 5.1 5.2 5.3 5.7 5.2 4.8 4.9 6.8 11.5 12.1 15.3 19.4 21.3 18.9 14.3 11.4 9.4 7.5 6.3 5.6 5.1 4.5 4.1
3.2 3.7 4.4 4.3 4.6 5.0 4.7 4.2 3.9 4.1 4.5 4.4 5.6 5.4 5.3 5.0 4.6 4.7 4.5 4.7 5.2 5.4 5.3 5.7 5.0 4.3 5.8 9.4 11.4 14.3 16.8 17.9 17.4 16.8 13.4 10.6 8.8 7.0 6.3 6.1 4.8 4.9
3.6 3.7 4.3 4.6 5.0 4.5 4.1 4.3 4.2 4.4 4.4 4.7 5.1 5.2 5.1 4.4 4.5 4.9 4.6 4.7 4.7 4.8 4.7 5.5 5.5 4.7 4.7 8.2 10.8 14.2 15.4 16.5 16.4 16.0 14.9 11.9 10.3 9.2 7.4 6.0 4.9 4.1
3.5 3.9 4.0 4.5 4.8 4.3 3.8 4.1 4.2 4.6 4.4 4.8 4.7 4.3 4.6 4.3 4.3 4.3 4.4 4.5 4.6 5.5 5.8 5.7 5.7 5.2 5.2 6.0 11.7 13.1 16.1 15.4 14.6 15.1 15.4 13.4 11.9 10.6 10.8 9.2 7.0 5.9